Simultaneous Nadir Overpasses (SNOs) Predictions

Prediction of SNOs between GOES-17 and TERRA Satellite Orbit:

Table of predicted SNOs for the next 14.0 days since TLE Epoch: 3/21/2025
Index Date Time (GOES-17) GOES-17 Lat,Lon TERRA Lat,Lon Distance(km) Time Diff (sec)
1 03/23/2025 04:23:05 -0.03,-104.38 0.20,-103.35 117.20 80
2 03/23/2025 16:42:37 0.03,-104.41 0.78,-108.11 418.90 80
3 03/25/2025 16:21:06 0.03,-104.41 -0.18,-103.56 97.19 80
4 03/26/2025 04:40:45 -0.03,-104.37 -0.86,-108.34 451.45 80
5 03/28/2025 04:24:32 -0.03,-104.37 0.10,-103.79 65.32 80
6 03/28/2025 16:44:04 0.03,-104.41 0.90,-108.54 470.22 80
7 03/30/2025 16:22:30 0.03,-104.41 -0.05,-103.99 46.98 80
8 04/02/2025 04:25:55 -0.03,-104.35 -0.01,-104.22 15.62 80
9 04/04/2025 16:26:31 0.02,-104.39 0.02,-104.41 2.54 80
